EW6434 Weather Reports


Display with metric or nautical units.
time (UTC)temp
F
wind
direction
speed
MPH
gust
MPH
rain 1hr
in
rain 24hr
in
rain mn
in
humidity
%
barometer
mb
20260901233049 67 267 0.0 2.0 0.00 0.01 0.01 43 1014.9
20260901231550 67 226 0.0 5.0 0.00 0.01 0.01 41 1014.9
20260901230050 67 271 0.0 6.0 0.00 0.01 0.01 44 1014.9
20260901224544 67 158 0.0 5.0 0.00 0.07 0.01 47 1015.1
20260901223043 68 165 0.0 4.0 0.00 0.07 0.01 47 1015.2
20260901221540 67 200 0.0 4.0 0.00 0.07 0.01 48 1015.3
20260901214536 64 128 0.0 5.0 0.00 0.09 0.01 53 1015.7
20260901213100 65 158 0.0 5.0 0.00 0.09 0.01 49 1015.9
20260901211533 65 293 0.0 2.0 0.00 0.09 0.01 52 1016.1
20260901210031 64 113 1.0 7.0 0.00 0.09 0.01 50 1016.5
20260901204536 65 110 0.0 6.0 0.00 0.11 0.01 48 1016.7
20260901203047 65 212 0.0 6.0 0.00 0.11 0.01 51 1016.8
20260901201526 65 98 3.0 9.0 0.00 0.11 0.01 47 1017.0
20260901200032 66 135 1.0 10.0 0.00 0.11 0.01 45 1017.1
20260901194522 64 162 0.0 4.0 0.00 0.25 0.01 48 1017.2
20260901193021 62 34 0.0 3.0 0.00 0.25 0.01 53 1017.2
20260901191521 62 120 0.0 0.0 0.00 0.25 0.01 57 1017.4
20260901190020 60 260 0.0 1.0 0.00 0.25 0.01 59 1017.5
20260901184529 61 316 0.0 4.0 0.00 0.26 0.01 52 1017.7
20260901183031 61 165 0.0 2.0 0.00 0.26 0.01 56 1017.7
20260901181522 60 175 0.0 2.0 0.00 0.26 0.01 56 1017.8
20260901180018 61 288 0.0 0.0 0.00 0.26 0.01 56 1017.8
20260901174518 62 159 0.0 4.0 0.00 0.26 0.01 55 1017.8
20260901173020 64 124 0.0 3.0 0.00 0.26 0.01 55 1017.7
20260901171515 65 282 0.0 1.0 0.00 0.26 0.01 55 1017.8
20260901170012 63 120 0.0 4.0 0.00 0.26 0.01 55 1017.7
20260901164510 62 117 0.0 2.0 0.01 0.26 0.01 57 1017.8
20260901163010 62 229 0.0 0.0 0.01 0.26 0.01 65 1017.9
20260901161505 60 222 0.0 0.0 0.01 0.26 0.01 67 1018.1
20260901160105 57 223 0.0 0.0 0.01 0.26 0.01 82 1018.3
20260901154555 53 222 0.0 0.0 0.00 0.25 0.00 86 1018.5
20260901153050 51 223 0.0 0.0 0.00 0.25 0.00 93 1018.8
20260901151546 48 245 0.0 0.0 0.00 0.25 0.00 97 1018.9
20260901150041 44 245 0.0 0.0 0.00 0.25 0.00 97 1019.0
20260901144540 42 245 0.0 0.0 0.00 0.25 0.00 97 1019.2
20260901143045 41 245 0.0 0.0 0.00 0.25 0.00 97 1019.3
20260901141544 40 245 0.0 0.0 0.00 0.25 0.00 97 1019.4
20260901140051 40 245 0.0 0.0 0.00 0.25 0.00 97 1019.5
20260901134548 39 245 0.0 0.0 0.00 0.25 0.00 97 1019.5
20260901133041 39 245 0.0 0.0 0.00 0.25 0.00 97 1019.4
20260901131538 39 245 0.0 0.0 0.00 0.25 0.00 97 1019.2
20260901130039 39 245 0.0 0.0 0.00 0.25 0.00 97 1018.9
20260901124531 40 245 0.0 0.0 0.00 0.25 0.00 97 1018.6
20260901123028 40 245 0.0 0.0 0.00 0.25 0.00 97 1018.3
20260901121527 40 245 0.0 0.0 0.00 0.25 0.00 97 1018.2
20260901120042 40 245 0.0 0.0 0.00 0.25 0.00 97 1017.9
20260901114525 41 245 0.0 0.0 0.00 0.25 0.00 97 1017.8
20260901113023 41 245 0.0 0.0 0.00 0.25 0.00 97 1017.5
20260901111523 41 245 0.0 0.0 0.00 0.25 0.00 97 1017.6
20260901110022 41 245 0.0 0.0 0.00 0.25 0.00 97 1017.5
20260901104521 41 245 0.0 0.0 0.00 0.25 0.00 97 1017.5
20260901103026 42 245 0.0 0.0 0.00 0.25 0.00 97 1017.5
20260901101518 42 245 0.0 0.0 0.00 0.25 0.00 97 1017.5
20260901100016 42 245 0.0 0.0 0.00 0.25 0.00 97 1017.4
20260901094515 42 245 0.0 0.0 0.00 0.26 0.00 97 1017.5
20260901093015 42 245 0.0 0.0 0.00 0.26 0.00 96 1017.5
20260901091513 43 245 0.0 0.0 0.00 0.26 0.00 97 1017.4
20260901090013 43 245 0.0 0.0 0.00 0.26 0.00 97 1017.6
20260901084515 43 245 0.0 0.0 0.00 0.31 0.00 97 1017.5
20260901083012 43 245 0.0 0.0 0.00 0.31 0.00 96 1017.8
20260901081512 43 245 0.0 0.0 0.00 0.31 0.00 96 1018.1
20260901080010 43 245 0.0 0.0 0.00 0.31 0.00 96 1018.1
20260901074509 43 245 0.0 0.0 0.00 0.33 0.00 96 1018.2
20260901073007 43 245 0.0 0.0 0.00 0.33 0.00 96 1018.1
20260901071518 43 245 0.0 0.0 0.00 0.33 0.00 96 1017.8
20260901070014 43 290 0.0 0.0 0.00 0.33 0.00 96 1017.6
20260901064505 43 290 0.0 0.0 0.00 0.33 0.00 96 1017.7
20260901063003 43 290 0.0 0.0 0.00 0.33 0.00 96 1017.7
20260901061502 43 290 0.0 0.0 0.00 0.33 0.00 96 1017.7
20260901060100 43 290 0.0 0.0 0.00 0.33 0.00 96 1017.3
20260901054559 43 290 0.0 0.0 0.00 0.33 0.33 96 1017.3
20260901053121 43 290 0.0 0.0 0.00 0.33 0.33 96 1017.4
20260901051609 44 290 0.0 0.0 0.00 0.33 0.33 96 1017.3
20260901050055 44 290 0.0 0.0 0.00 0.33 0.33 96 1017.3
20260901044606 44 290 0.0 0.0 0.00 0.40 0.33 96 1017.3
20260901043054 44 290 0.0 0.0 0.00 0.40 0.33 96 1017.1
20260901041553 44 290 0.0 0.0 0.00 0.40 0.33 96 1017.1
20260901040108 45 290 0.0 0.0 0.00 0.40 0.33 95 1016.9
20260901034604 45 290 0.0 0.0 0.00 0.40 0.33 95 1016.6
20260901033045 46 290 0.0 0.0 0.00 0.40 0.33 95 1016.5
20260901031544 46 290 0.0 0.0 0.00 0.40 0.33 95 1015.8
20260901030043 46 290 0.0 0.0 0.00 0.40 0.33 95 1015.6
20260901024551 46 290 0.0 0.0 0.00 0.53 0.33 95 1015.4
20260901023056 46 290 0.0 0.0 0.00 0.53 0.33 94 1015.1
20260901021540 47 290 0.0 0.0 0.00 0.53 0.33 94 1014.6
20260901020044 48 290 0.0 0.0 0.00 0.53 0.33 93 1014.5
20260901014550 49 290 0.0 0.0 0.00 0.56 0.33 92 1014.5
20260901013039 50 290 0.0 0.0 0.00 0.56 0.33 91 1014.5
20260901011539 50 290 0.0 0.0 0.00 0.56 0.33 92 1014.5
20260901010038 51 290 0.0 0.0 0.00 0.56 0.33 90 1014.3
20260901004538 51 290 0.0 0.0 0.00 0.56 0.33 90 1014.8
20260901003038 51 290 0.0 0.0 0.00 0.56 0.33 91 1014.9
20260901001537 51 290 0.0 0.0 0.00 0.56 0.33 90 1015.1
20260901000035 52 290 0.0 1.0 0.00 0.56 0.33 90 1015.3
20260831234540 52 142 0.0 3.0 0.00 0.56 0.33 88 1015.1